TimeEST,TemperatureF,Dew PointF,Humidity,Sea Level PressureIn,VisibilityMPH,Wind Direction,Wind SpeedMPH,Gust SpeedMPH,PrecipitationIn,Events,Conditions,WindDirDegrees,DateUTC
12:56 AM,1.0,-9.9,60,30.20,10.0,NW,10.4,-,N/A,,Clear,320,2014-03-03 05:56:00
1:28 AM,1.0,-9.0,63,30.07,10.0,NW,12.7,-,N/A,,Mostly Cloudy,320,2014-03-03 06:28:00
1:56 AM,1.0,-8.0,66,30.21,10.0,NW,11.5,-,N/A,,Overcast,310,2014-03-03 06:56:00
2:54 AM,-0.4,-9.4,66,30.09,10.0,NW,10.4,-,N/A,,Scattered Clouds,320,2014-03-03 07:54:00
2:56 AM,-0.0,-8.0,69,30.23,10.0,NNW,11.5,-,N/A,,Scattered Clouds,330,2014-03-03 07:56:00
3:05 AM,-0.0,-8.0,69,30.08,10.0,NW,10.4,-,N/A,,Mostly Cloudy,320,2014-03-03 08:05:00
3:56 AM,-0.9,-8.0,72,30.23,10.0,NNW,9.2,-,N/A,,Mostly Cloudy,330,2014-03-03 08:56:00
4:18 AM,-0.9,-8.0,72,30.08,10.0,NNW,10.4,-,N/A,,Scattered Clouds,330,2014-03-03 09:18:00
4:56 AM,-2.0,-8.0,76,30.25,10.0,NW,8.1,-,N/A,,Partly Cloudy,320,2014-03-03 09:56:00
5:23 AM,-0.9,-8.0,72,30.10,10.0,NNW,5.8,-,N/A,,Mostly Cloudy,330,2014-03-03 10:23:00
5:47 AM,-2.0,-8.0,76,30.10,10.0,NW,6.9,-,N/A,,Scattered Clouds,310,2014-03-03 10:47:00
5:56 AM,-2.0,-9.0,72,30.25,10.0,WNW,5.8,-,N/A,,Partly Cloudy,290,2014-03-03 10:56:00
6:56 AM,-0.9,-8.0,72,30.26,10.0,NW,6.9,-,N/A,,Scattered Clouds,310,2014-03-03 11:56:00
7:05 AM,-0.9,-7.1,75,30.11,10.0,NW,9.2,-,N/A,,Mostly Cloudy,310,2014-03-03 12:05:00
7:56 AM,-0.9,-7.1,75,30.28,4.0,WNW,6.9,-,0.00,Snow,Light Snow,300,2014-03-03 12:56:00
8:56 AM,1.0,-7.1,69,30.30,7.0,NNW,6.9,-,0.00,,Overcast,340,2014-03-03 13:56:00
9:56 AM,1.9,-7.1,66,30.30,10.0,NNW,10.4,-,0.00,,Overcast,330,2014-03-03 14:56:00
10:56 AM,6.1,-5.1,60,30.31,10.0,NNW,8.1,-,0.00,,Partly Cloudy,340,2014-03-03 15:56:00
11:56 AM,6.1,-6.0,58,30.33,10.0,NNE,9.2,-,0.00,,Clear,20,2014-03-03 16:56:00
12:56 PM,8.1,-6.0,53,30.33,10.0,Variable,6.9,-,0.00,,Clear,0,2014-03-03 17:56:00
1:56 PM,9.0,-6.0,51,30.32,10.0,NW,9.2,-,0.00,,Clear,320,2014-03-03 18:56:00
2:56 PM,10.9,-6.0,47,30.33,10.0,WNW,9.2,-,0.00,,Clear,290,2014-03-03 19:56:00
3:56 PM,12.0,-6.0,44,30.34,10.0,Variable,4.6,-,0.00,,Clear,0,2014-03-03 20:56:00
4:56 PM,10.9,-7.1,44,30.35,10.0,North,5.8,-,N/A,,Clear,350,2014-03-03 21:56:00
5:56 PM,8.1,-8.0,48,30.38,10.0,North,6.9,-,N/A,,Clear,360,2014-03-03 22:56:00
6:56 PM,6.1,-8.0,53,30.39,10.0,NNW,5.8,-,N/A,,Clear,330,2014-03-03 23:56:00
7:56 PM,3.9,-8.0,58,30.39,10.0,NW,8.1,-,N/A,,Clear,320,2014-03-04 00:56:00
8:56 PM,1.9,-9.0,60,30.39,10.0,NW,4.6,-,N/A,,Clear,320,2014-03-04 01:56:00
9:56 PM,1.0,-8.0,66,30.40,10.0,WNW,6.9,-,N/A,,Clear,300,2014-03-04 02:56:00
10:56 PM,1.0,-7.1,69,30.39,10.0,NNW,3.5,-,N/A,,Clear,330,2014-03-04 03:56:00
11:56 PM,-0.9,-9.0,69,30.40,10.0,NW,5.8,-,N/A,,Clear,310,2014-03-04 04:56:00